| time (UTC) | temp F | wind direction | speed knots | gust knots | rain 1hr in | rain 24hr in | rain mn in | humidity % | barometer mb |
| 20260506154552 | 54 | 53 | 2.6 | 7.0 | 0.00 | 0.00 | 0.00 | 1 | 1011.7 |
| 20260506153519 | 54 | 35 | 3.5 | 7.0 | 0.00 | 0.00 | 0.00 | 1 | 1011.8 |
| 20260506152538 | 54 | 34 | 3.5 | 7.0 | 0.00 | 0.00 | 0.00 | 1 | 1011.7 |
| 20260506151511 | 53 | 53 | 2.6 | 6.1 | 0.00 | 0.00 | 0.00 | 1 | 1011.6 |
| 20260506150506 | 53 | 42 | 3.5 | 7.8 | 0.00 | 0.00 | 0.00 | 1 | 1011.5 |
| 20260506144307 | 54 | 44 | 3.5 | 8.7 | 0.00 | 0.00 | 0.00 | 1 | 1011.6 |
| 20260506143320 | 54 | 18 | 4.3 | 9.6 | 0.00 | 0.00 | 0.00 | 1 | 1011.6 |
| 20260506141111 | 55 | 62 | 5.2 | 12.2 | 0.00 | 0.00 | 0.00 | 1 | 1011.5 |
| 20260506140126 | 56 | 58 | 5.2 | 12.2 | 0.00 | 0.00 | 0.00 | 1 | 1011.5 |
| 20260506135120 | 57 | 26 | 3.5 | 8.7 | 0.00 | 0.00 | 0.00 | 8 | 1011.4 |
| 20260506134133 | 58 | 78 | 2.6 | 8.7 | 0.00 | 0.00 | 0.00 | 28 | 1011.5 |
| 20260506133124 | 58 | 55 | 1.7 | 8.7 | 0.00 | 0.00 | 0.00 | 39 | 1011.4 |
| 20260506132117 | 60 | 50 | 3.5 | 8.7 | 0.00 | 0.00 | 0.00 | 42 | 1011.4 |
| 20260506131118 | 60 | 31 | 3.5 | 9.6 | 0.00 | 0.00 | 0.00 | 46 | 1011.4 |
| 20260506124935 | 60 | 71 | 4.3 | 8.7 | 0.00 | 0.00 | 0.00 | 46 | 1011.4 |
| 20260506123901 | 60 | 16 | 4.3 | 8.7 | 0.00 | 0.00 | 0.00 | 46 | 1011.4 |
| 20260506122910 | 60 | 348 | 3.5 | 7.8 | 0.00 | 0.00 | 0.00 | 44 | 1011.3 |
| 20260506121933 | 59 | 16 | 3.5 | 7.8 | 0.00 | 0.00 | 0.00 | 45 | 1011.4 |
| 20260506120915 | 58 | 337 | 4.3 | 9.6 | 0.00 | 0.00 | 0.00 | 38 | 1011.3 |
| 20260506115859 | 58 | 10 | 3.5 | 10.4 | 0.00 | 0.00 | 0.00 | 37 | 1011.3 |
| 20260506114907 | 57 | 28 | 3.5 | 10.4 | 0.00 | 0.00 | 0.00 | 34 | 1011.4 |
| 20260506113924 | 57 | 20 | 4.3 | 9.6 | 0.00 | 0.00 | 0.00 | 32 | 1011.4 |
| 20260506111832 | 57 | 14 | 4.3 | 9.6 | 0.00 | 0.00 | 0.00 | 32 | 1011.4 |
| 20260506110834 | 57 | 9 | 4.3 | 9.6 | 0.00 | 0.00 | 0.00 | 37 | 1011.3 |
| 20260506105819 | 58 | 12 | 5.2 | 12.2 | 0.00 | 0.00 | 0.00 | 38 | 1011.3 |
| 20260506104815 | 58 | 9 | 6.1 | 12.2 | 0.00 | 0.00 | 0.00 | 36 | 1011.3 |
| 20260506103819 | 59 | 21 | 5.2 | 11.3 | 0.00 | 0.00 | 0.00 | 34 | 1011.4 |
| 20260506101641 | 57 | 5 | 6.1 | 12.2 | 0.00 | 0.00 | 0.00 | 29 | 1011.3 |
| 20260506100642 | 56 | 17 | 5.2 | 11.3 | 0.00 | 0.00 | 0.00 | 25 | 1011.4 |
| 20260506095618 | 55 | 341 | 5.2 | 10.4 | 0.00 | 0.00 | 0.00 | 17 | 1011.3 |
| 20260506093413 | 55 | 30 | 7.0 | 12.2 | 0.00 | 0.00 | 0.00 | 11 | 1011.3 |
| 20260506092349 | 55 | 34 | 6.1 | 12.2 | 0.00 | 0.00 | 0.00 | 6 | 1011.3 |
| 20260506091330 | 55 | 14 | 5.2 | 12.2 | 0.00 | 0.00 | 0.00 | 1 | 1011.2 |
| 20260506090352 | 54 | 340 | 5.2 | 11.3 | 0.00 | 0.00 | 0.00 | 1 | 1011.2 |
| 20260506085327 | 53 | 348 | 5.2 | 12.2 | 0.00 | 0.00 | 0.00 | 1 | 1011.1 |
| 20260506080924 | 52 | 0 | 5.2 | 13.0 | 0.00 | 0.00 | 0.00 | 1 | 1011.0 |
| 20260506072829 | 52 | 13 | 6.1 | 11.3 | 0.00 | 0.00 | 0.00 | 1 | 1010.8 |
| 20260506071844 | 51 | 10 | 7.0 | 13.0 | 0.00 | 0.00 | 0.00 | 1 | 1010.8 |
| 20260506070822 | 51 | 5 | 5.2 | 13.0 | 0.00 | 0.00 | 0.00 | 1 | 1010.7 |
| 20260506061548 | 50 | 350 | 5.2 | 10.4 | 0.00 | 0.00 | 0.00 | 1 | 1010.5 |
| 20260506060547 | 51 | 350 | 6.1 | 13.9 | 0.00 | 0.00 | 0.00 | 1 | 1010.5 |
| 20260506050354 | 50 | 28 | 6.1 | 13.0 | 0.00 | 0.00 | 0.00 | 1 | 1010.5 |
| 20260506044413 | 50 | 5 | 5.2 | 12.2 | 0.00 | 0.00 | 0.00 | 1 | 1010.5 |
| 20260506042248 | 50 | 13 | 6.1 | 12.2 | 0.00 | 0.00 | 0.00 | 1 | 1010.4 |
| 20260506041254 | 50 | 24 | 6.1 | 12.2 | 0.00 | 0.00 | 0.00 | 1 | 1010.4 |
| 20260506040253 | 50 | 17 | 4.3 | 9.6 | 0.00 | 0.00 | 0.00 | 1 | 1010.5 |
| 20260506035250 | 51 | 41 | 5.2 | 12.2 | 0.00 | 0.00 | 0.00 | 1 | 1010.5 |
| 20260506034224 | 51 | 28 | 5.2 | 12.2 | 0.00 | 0.00 | 0.00 | 1 | 1010.6 |
| 20260506033151 | 50 | 19 | 4.3 | 11.3 | 0.00 | 0.00 | 0.00 | 1 | 1010.7 |
| 20260506032152 | 50 | 33 | 5.2 | 12.2 | 0.00 | 0.00 | 0.00 | 1 | 1010.7 |
| 20260506031119 | 51 | 350 | 6.1 | 12.2 | 0.00 | 0.00 | 0.00 | 1 | 1010.7 |
| 20260506030107 | 51 | 5 | 5.2 | 12.2 | 0.00 | 0.00 | 0.00 | 1 | 1010.8 |
| 20260506025118 | 51 | 0 | 6.1 | 11.3 | 0.00 | 0.00 | 0.00 | 1 | 1010.9 |
| 20260506024107 | 51 | 5 | 4.3 | 11.3 | 0.00 | 0.00 | 0.00 | 1 | 1010.9 |
| 20260506023048 | 51 | 342 | 5.2 | 11.3 | 0.00 | 0.00 | 0.00 | 1 | 1011.0 |
| 20260506022018 | 51 | 26 | 6.1 | 11.3 | 0.00 | 0.00 | 0.00 | 1 | 1011.1 |
| 20260506021041 | 51 | 49 | 6.1 | 10.4 | 0.00 | 0.00 | 0.00 | 1 | 1011.0 |
| 20260506020007 | 52 | 41 | 4.3 | 11.3 | 0.00 | 0.00 | 0.00 | 1 | 1011.0 |
| 20260506013831 | 52 | 19 | 4.3 | 11.3 | 0.00 | 0.00 | 0.00 | 1 | 1011.0 |
| 20260506012819 | 52 | 19 | 5.2 | 12.2 | 0.00 | 0.00 | 0.00 | 1 | 1011.0 |
| 20260506011817 | 52 | 22 | 6.1 | 12.2 | 0.00 | 0.00 | 0.00 | 1 | 1011.0 |
| 20260506010743 | 52 | 53 | 6.1 | 12.2 | 0.00 | 0.00 | 0.00 | 1 | 1011.2 |
| 20260506004628 | 52 | 24 | 6.1 | 11.3 | 0.00 | 0.00 | 0.00 | 1 | 1011.2 |
| 20260506003607 | 52 | 26 | 6.1 | 11.3 | 0.00 | 0.00 | 0.00 | 1 | 1011.3 |
| 20260506002611 | 52 | 33 | 6.1 | 11.3 | 0.00 | 0.00 | 0.00 | 1 | 1011.3 |
| 20260506001627 | 52 | 19 | 6.1 | 11.3 | 0.00 | 0.00 | 0.00 | 1 | 1011.3 |
| 20260506000603 | 52 | 40 | 5.2 | 12.2 | 0.00 | 0.00 | 0.00 | 1 | 1011.4 |
| 20260505235609 | 53 | 55 | 7.0 | 15.6 | 0.00 | 0.00 | 0.00 | 1 | 1011.4 |
| 20260505234600 | 53 | 41 | 7.0 | 15.6 | 0.00 | 0.00 | 0.00 | 1 | 1011.4 |
| 20260505233619 | 53 | 65 | 7.0 | 14.8 | 0.00 | 0.00 | 0.00 | 1 | 1011.4 |
| 20260505232635 | 53 | 14 | 6.1 | 12.2 | 0.00 | 0.00 | 0.00 | 1 | 1011.4 |
| 20260505231639 | 53 | 5 | 6.1 | 14.8 | 0.00 | 0.00 | 0.00 | 1 | 1011.3 |
| 20260505230616 | 53 | 24 | 7.0 | 14.8 | 0.00 | 0.00 | 0.00 | 1 | 1011.3 |
| 20260505225541 | 53 | 75 | 7.0 | 13.0 | 0.00 | 0.00 | 0.00 | 1 | 1011.4 |
| 20260505223350 | 53 | 36 | 7.0 | 13.9 | 0.00 | 0.00 | 0.00 | 1 | 1011.5 |
| 20260505222346 | 53 | 72 | 7.8 | 14.8 | 0.00 | 0.00 | 0.00 | 1 | 1011.5 |
| 20260505221410 | 53 | 36 | 6.1 | 14.8 | 0.00 | 0.00 | 0.00 | 1 | 1011.5 |
| 20260505220343 | 53 | 59 | 6.1 | 13.0 | 0.00 | 0.00 | 0.00 | 1 | 1011.5 |
| 20260505214226 | 53 | 28 | 6.1 | 13.9 | 0.00 | 0.00 | 0.00 | 1 | 1011.4 |
| 20260505213234 | 53 | 57 | 4.3 | 12.2 | 0.00 | 0.00 | 0.00 | 1 | 1011.5 |
| 20260505212201 | 53 | 71 | 5.2 | 13.0 | 0.00 | 0.00 | 0.00 | 1 | 1011.5 |
| 20260505211149 | 53 | 34 | 5.2 | 13.0 | 0.00 | 0.00 | 0.00 | 1 | 1011.5 |
| 20260505204953 | 53 | 71 | 3.5 | 9.6 | 0.00 | 0.00 | 0.00 | 1 | 1011.4 |
| 20260505204000 | 53 | 56 | 3.5 | 8.7 | 0.00 | 0.00 | 0.00 | 1 | 1011.4 |
| 20260505202950 | 53 | 58 | 4.3 | 11.3 | 0.00 | 0.00 | 0.00 | 1 | 1011.4 |
| 20260505201914 | 53 | 60 | 5.2 | 11.3 | 0.00 | 0.00 | 0.00 | 1 | 1011.3 |
| 20260505200904 | 53 | 57 | 4.3 | 11.3 | 0.00 | 0.00 | 0.00 | 1 | 1011.2 |
| 20260505195900 | 53 | 70 | 4.3 | 11.3 | 0.00 | 0.00 | 0.00 | 1 | 1011.1 |
| 20260505194837 | 53 | 34 | 3.5 | 8.7 | 0.00 | 0.00 | 0.00 | 1 | 1010.9 |
| 20260505193810 | 53 | 69 | 3.5 | 8.7 | 0.00 | 0.00 | 0.00 | 1 | 1010.9 |
| 20260505192758 | 54 | 58 | 3.5 | 7.8 | 0.00 | 0.00 | 0.00 | 1 | 1010.8 |
| 20260505191801 | 54 | 54 | 3.5 | 8.7 | 0.00 | 0.00 | 0.00 | 1 | 1010.7 |
| 20260505190742 | 54 | 67 | 3.5 | 10.4 | 0.00 | 0.00 | 0.00 | 1 | 1010.7 |
| 20260505185745 | 55 | 52 | 3.5 | 10.4 | 0.00 | 0.00 | 0.00 | 1 | 1010.6 |
| 20260505184724 | 55 | 42 | 4.3 | 10.4 | 0.00 | 0.00 | 0.00 | 1 | 1010.5 |
| 20260505183700 | 55 | 45 | 4.3 | 10.4 | 0.00 | 0.00 | 0.00 | 1 | 1010.5 |
| 20260505182723 | 56 | 22 | 3.5 | 10.4 | 0.00 | 0.00 | 0.00 | 3 | 1010.5 |
| 20260505181707 | 56 | 62 | 3.5 | 8.7 | 0.00 | 0.00 | 0.00 | 6 | 1010.5 |
| 20260505180714 | 56 | 79 | 3.5 | 9.6 | 0.00 | 0.00 | 0.00 | 5 | 1010.5 |
| 20260505175643 | 56 | 54 | 3.5 | 9.6 | 0.00 | 0.00 | 0.00 | 5 | 1010.5 |
| 20260505173438 | 56 | 82 | 3.5 | 8.7 | 0.00 | 0.00 | 0.00 | 1 | 1010.5 |
| 20260505172412 | 56 | 53 | 3.5 | 9.6 | 0.00 | 0.00 | 0.00 | 5 | 1010.4 |
| 20260505170230 | 57 | 32 | 3.5 | 9.6 | 0.00 | 0.00 | 0.00 | 14 | 1010.5 |
| 20260505165244 | 57 | 46 | 4.3 | 9.6 | 0.00 | 0.00 | 0.00 | 19 | 1010.5 |
| 20260505164212 | 57 | 64 | 4.3 | 8.7 | 0.00 | 0.00 | 0.00 | 14 | 1010.6 |
| 20260505163157 | 57 | 35 | 3.5 | 11.3 | 0.00 | 0.00 | 0.00 | 12 | 1010.5 |
| 20260505162204 | 57 | 78 | 5.2 | 11.3 | 0.00 | 0.00 | 0.00 | 17 | 1010.4 |
| 20260505161132 | 57 | 78 | 4.3 | 11.3 | 0.00 | 0.00 | 0.00 | 13 | 1010.5 |